Weather History for Trinity Center, CA

Change the Weather History Date:

Monday, October 1, 2012

  Actual Average (KMHS) Record (KMHS)
Temperature  
Mean Temperature 70 °F 57 °F  
Max Temperature 95 °F 73 °F 92 °F (1952)
Min Temperature 46 °F 40 °F 26 °F (1950)
Degree Days  
Heating Degree Days 0 9  
Month to date heating degree days 9  
Since 1 July heating degree days 246  
Cooling Degree Days 6 0  
Month to date cooling degree days 0  
Year to date cooling degree days 287  
Growing Degree Days 20 (Base 50)    
Moisture  
Dew Point 36 °F    
Average Humidity 38    
Maximum Humidity 62    
Minimum Humidity 9    
Precipitation  
Precipitation 0.00 in 0.03 in 0.54 in (1951)
Month to date precipitation 0.03  
Year to date precipitation 28.03  
Sea Level Pressure  
Sea Level Pressure 30.16 in    
Wind  
Wind Speed 2 mph ()    
Max Wind Speed 9 mph    
Max Gust Speed -    
Visibility 10.0 miles    
Events      
T = Trace of Precipitation, MM = Missing Value Source: Averaged Metar Reports

Daily Weather History Graph

Daily Weather History Graph

Search for Another Location

Airport:

Trip Planner

Search our weather history database for the weather conditions in past years. The results will help you decide how hot, cold, wet, or windy it might be!

Date:

Astronomy

Oct. 01, 2012 Rise Set
Actual Time 7:08 AM PDT 6:51 PM PDT
Civil Twilight 6:40 AM PDT 7:19 PM PDT
Nautical Twilight 6:08 AM PDT 7:50 PM PDT
Astronomical Twilight 5:36 AM PDT 8:23 PM PDT
Moon 7:30 PM PDT (10/1) 8:43 AM PDT (10/1)
Length of Visible Light 12h 38m
Length of Day
11h 43m
Full, 97% of the Moon is Illuminated
Oct 1
Full
Oct 8
Last Quarter
Oct 15
New
Oct 21
First Quarter
Oct 29
Full

Hourly Weather History & Observations

Time (PDT) Temp. Dew Point Humidity Pressure Visibility Wind Dir Wind Speed Gust Speed Precip Events Conditions
12:10 AM 55.4 °F 33.8 °F 44% 30.21 in 10.0 mi WSW 3.5 mph - N/A   Clear
12:30 AM 55.4 °F 33.8 °F 44% 30.21 in 10.0 mi West 3.5 mph - N/A   Clear
12:50 AM 55.4 °F 33.8 °F 44% 30.20 in 10.0 mi Calm Calm - N/A   Clear
1:10 AM 53.6 °F 33.8 °F 47% 30.21 in 10.0 mi West 3.5 mph - N/A   Clear
1:30 AM 53.6 °F 33.8 °F 47% 30.21 in 10.0 mi Calm Calm - N/A   Clear
2:10 AM 53.6 °F 33.8 °F 47% 30.21 in 10.0 mi Calm Calm - N/A   Clear
2:30 AM 51.8 °F 33.8 °F 50% 30.21 in 10.0 mi West 3.5 mph - N/A   Clear
2:50 AM 51.8 °F 33.8 °F 50% 30.21 in 10.0 mi West 3.5 mph - N/A   Clear
3:10 AM 51.8 °F 33.8 °F 50% 30.21 in 10.0 mi West 4.6 mph - N/A   Clear
3:30 AM 50.0 °F 33.8 °F 54% 30.22 in 10.0 mi West 4.6 mph - N/A   Clear
3:50 AM 50.0 °F 33.8 °F 54% 30.21 in 10.0 mi West 3.5 mph - N/A   Clear
4:10 AM 50.0 °F 33.8 °F 54% 30.21 in 10.0 mi West 3.5 mph - N/A   Clear
4:30 AM 50.0 °F 33.8 °F 54% 30.21 in 10.0 mi West 3.5 mph - N/A   Clear
4:50 AM 50.0 °F 33.8 °F 54% 30.21 in 10.0 mi West 4.6 mph - N/A   Clear
5:10 AM 50.0 °F 33.8 °F 54% 30.21 in 10.0 mi West 4.6 mph - N/A   Clear
5:30 AM 48.2 °F 33.8 °F 58% 30.21 in 10.0 mi West 3.5 mph - N/A   Clear
5:50 AM 48.2 °F 33.8 °F 58% 30.21 in 10.0 mi West 3.5 mph - N/A   Clear
6:10 AM 48.2 °F 33.8 °F 58% 30.21 in 10.0 mi West 4.6 mph - N/A   Clear
6:30 AM 48.2 °F 35.6 °F 62% 30.22 in 10.0 mi West 3.5 mph - N/A   Clear
6:50 AM 48.2 °F 35.6 °F 62% 30.22 in 10.0 mi West 3.5 mph - N/A   Clear
7:10 AM 46.4 °F 33.8 °F 62% 30.22 in 10.0 mi Calm Calm - N/A   Clear
7:30 AM 48.2 °F 35.6 °F 62% 30.23 in 10.0 mi West 3.5 mph - N/A   Clear
7:50 AM 48.2 °F 35.6 °F 62% 30.24 in 10.0 mi Calm Calm - N/A   Clear
8:10 AM 51.8 °F 35.6 °F 54% 30.24 in 10.0 mi Calm Calm - N/A   Clear
8:30 AM 55.4 °F 37.4 °F 51% 30.24 in 10.0 mi Calm Calm - N/A   Clear
8:50 AM 57.2 °F 41.0 °F 55% 30.23 in 10.0 mi Calm Calm - N/A   Clear
9:10 AM 59.0 °F 41.0 °F 51% 30.23 in 10.0 mi Calm Calm - N/A   Clear
9:30 AM 60.8 °F 44.6 °F 55% 30.23 in 10.0 mi Calm Calm - N/A   Clear
9:50 AM 62.6 °F 44.6 °F 52% 30.23 in 10.0 mi Calm Calm - N/A   Clear
10:10 AM 64.4 °F 42.8 °F 45% 30.23 in 10.0 mi Calm Calm - N/A   Clear
10:30 AM 64.4 °F 39.2 °F 40% 30.22 in 10.0 mi Calm Calm - N/A   Clear
10:50 AM 68.0 °F 37.4 °F 33% 30.22 in 10.0 mi Calm Calm - N/A   Clear
11:10 AM 69.8 °F 39.2 °F 33% 30.21 in 10.0 mi Calm Calm - N/A   Clear
11:30 AM 71.6 °F 39.2 °F 31% 30.20 in 10.0 mi Calm Calm - N/A   Clear
11:50 AM 73.4 °F 35.6 °F 25% 30.19 in 10.0 mi Calm Calm - N/A   Clear
12:10 PM 75.2 °F 37.4 °F 25% 30.19 in 10.0 mi South 3.5 mph - N/A   Clear
12:30 PM 77.0 °F 39.2 °F 26% 30.18 in 10.0 mi Calm Calm - N/A   Clear
12:50 PM 80.6 °F 37.4 °F 21% 30.17 in 10.0 mi NE 3.5 mph - N/A   Clear
1:10 PM 82.4 °F 41.0 °F 23% 30.16 in 10.0 mi ENE 3.5 mph - N/A   Clear
1:30 PM 84.2 °F 39.2 °F 20% 30.14 in 10.0 mi NE 3.5 mph - N/A   Clear
2:10 PM 89.6 °F 39.2 °F 17% 30.12 in 10.0 mi Calm Calm - N/A   Clear
2:30 PM 91.4 °F 35.6 °F 14% 30.11 in 10.0 mi Calm Calm - N/A   Clear
2:50 PM 91.4 °F 33.8 °F 13% 30.10 in 10.0 mi SE 3.5 mph - N/A   Clear
3:10 PM 93.2 °F 32.0 °F 11% 30.09 in 10.0 mi South 9.2 mph - N/A   Clear
3:30 PM 93.2 °F 32.0 °F 11% 30.08 in 10.0 mi SSE 8.1 mph - N/A   Clear
3:50 PM 93.2 °F 32.0 °F 11% 30.08 in 10.0 mi South 8.1 mph - N/A   Clear
4:10 PM 93.2 °F 30.2 °F 11% 30.07 in 10.0 mi SSE 5.8 mph - N/A   Clear
4:30 PM 95.0 °F 28.4 °F 9% 30.06 in 10.0 mi SSE 4.6 mph - N/A   Clear
4:50 PM 93.2 °F 28.4 °F 10% 30.06 in 10.0 mi South 4.6 mph - N/A   Clear
5:10 PM 93.2 °F 26.6 °F 9% 30.06 in 10.0 mi SSE 3.5 mph - N/A   Clear
5:30 PM 91.4 °F 37.4 °F 15% 30.05 in 10.0 mi Calm Calm - N/A   Clear
5:50 PM 87.8 °F 41.0 °F 19% 30.05 in 10.0 mi Calm Calm - N/A   Clear
6:10 PM 80.6 °F 46.4 °F 30% 30.05 in 10.0 mi Calm Calm - N/A   Clear
6:30 PM 82.4 °F 33.8 °F 17% 30.05 in 10.0 mi Calm Calm - N/A   Clear
6:50 PM 77.0 °F 39.2 °F 26% 30.06 in 10.0 mi Calm Calm - N/A   Clear
7:10 PM 75.2 °F 39.2 °F 27% 30.07 in 10.0 mi SW 3.5 mph - N/A   Clear
7:30 PM 69.8 °F 39.2 °F 33% 30.07 in 10.0 mi Calm Calm - N/A   Clear
7:50 PM 68.0 °F 39.2 °F 35% 30.08 in 10.0 mi Calm Calm - N/A   Clear
8:10 PM 68.0 °F 39.2 °F 35% 30.09 in 10.0 mi Calm Calm - N/A   Clear
8:30 PM 66.2 °F 37.4 °F 35% 30.09 in 10.0 mi SW 3.5 mph - N/A   Clear
9:10 PM 64.4 °F 37.4 °F 37% 30.11 in 10.0 mi West 3.5 mph - N/A   Clear
9:30 PM 64.4 °F 35.6 °F 34% 30.11 in 10.0 mi West 3.5 mph - N/A   Clear
9:50 PM 62.6 °F 35.6 °F 37% 30.11 in 10.0 mi Calm Calm - N/A   Clear
10:10 PM 62.6 °F 35.6 °F 37% 30.11 in 10.0 mi Calm Calm - N/A   Clear
10:30 PM 62.6 °F 35.6 °F 37% 30.12 in 10.0 mi WSW 3.5 mph - N/A   Clear
11:10 PM 59.0 °F 35.6 °F 42% 30.12 in 10.0 mi Calm Calm - N/A   Clear
11:30 PM 59.0 °F 35.6 °F 42% 30.12 in 10.0 mi West 3.5 mph - N/A   Clear
11:50 PM 57.2 °F 35.6 °F 44% 30.13 in 10.0 mi West 4.6 mph - N/A   Clear